,,Stat5,,Stat1,,Stat2,,Stat3,,Stat4,,Wind1,,Wind1,
time,status,PA1M_AVG,status,PR1M_SUM,status,RH1M_AVG,status,SR1M_AVG,status,TA1M_AVG,status,W1dAve1m,status,W1sAve1m,
2002-04-02, 00:00:00,VALID,920.299,VALID,0,VALID,97.3273,VALID,-0.0169808,VALID,19.616,VALID,159,VALID,0.39234,
2002-04-02, 00:01:00,VALID,920.287,VALID,0,VALID,97.3579,VALID,0,VALID,19.6031,VALID,165,VALID,0.308377,
2002-04-02, 00:02:00,VALID,920.273,VALID,0,VALID,97.3668,VALID,-0.0169808,VALID,19.6026,VALID,148,VALID,0.567925,
2002-04-02, 00:03:00,VALID,920.245,VALID,0,VALID,97.4011,VALID,0.0169808,VALID,19.6033,VALID,154,VALID,0.289485,
2002-04-02, 00:04:00,VALID,920.237,VALID,0,VALID,97.4075,VALID,0,VALID,19.5931,VALID,143,VALID,0.30736,
2002-04-02, 00:05:00,VALID,920.218,VALID,0,VALID,97.4164,VALID,-0.0169808,VALID,19.5834,VALID,143,VALID,0.0581826,
2002-04-02, 00:06:00,VALID,920.198,VALID,0,VALID,97.4481,VALID,0,VALID,19.5901,VALID,143,VALID,0,
2002-04-02, 00:07:00,VALID,920.17,VALID,0,VALID,97.4558,VALID,0,VALID,19.5874,VALID,109,VALID,0.282072,
2002-04-02, 00:08:00,VALID,920.162,VALID,0,VALID,97.4431,VALID,0,VALID,19.5737,VALID,100,VALID,0.0729167,
2002-04-02, 00:09:00,VALID,920.157,VALID,0,VALID,97.4927,VALID,0,VALID,19.5805,VALID,100,VALID,0.0417352,
2002-04-02, 00:10:00,VALID,920.158,VALID,0,VALID,97.4774,VALID,0,VALID,19.5742,VALID,117,VALID,0.221354,
2002-04-02, 00:11:00,VALID,920.158,VALID,0,VALID,97.5054,VALID,-0.0169808,VALID,19.5581,VALID,118,VALID,0,
2002-04-02, 00:12:00,VALID,920.132,VALID,0,VALID,97.5461,VALID,0,VALID,19.5486,VALID,136,VALID,0.327524,
2002-04-02, 00:13:00,VALID,920.109,VALID,0,VALID,97.5206,VALID,0.0169808,VALID,19.5546,VALID,168,VALID,0.334293,
2002-04-02, 00:14:00,VALID,920.102,VALID,0,VALID,97.4977,VALID,0,VALID,19.5452,VALID,141,VALID,0.688702,
2002-04-02, 00:15:00,VALID,920.08,VALID,0,VALID,97.4787,VALID,0,VALID,19.5417,VALID,115,VALID,0.406661,
2002-04-02, 00:16:00,VALID,920.075,VALID,0,VALID,97.4367,VALID,-0.0169808,VALID,19.5449,VALID,110,VALID,0.955929,
2002-04-02, 00:17:00,VALID,920.056,VALID,0,VALID,97.3858,VALID,-0.0169808,VALID,19.5389,VALID,115,VALID,0.971834,
2002-04-02, 00:18:00,VALID,920.052,VALID,0,VALID,97.3477,VALID,0.0169808,VALID,19.532,VALID,118,VALID,0.942909,
2002-04-02, 00:19:00,VALID,920.038,VALID,0,VALID,97.3248,VALID,-0.0169808,VALID,19.5352,VALID,130,VALID,0.775905,
2002-04-02, 00:20:00,VALID,920.041,VALID,0,VALID,97.3299,VALID,0.0169808,VALID,19.5481,VALID,141,VALID,0.891627,
2002-04-02, 00:21:00,VALID,920.03,VALID,0,VALID,97.3019,VALID,0,VALID,19.5608,VALID,153,VALID,0.668791,
2002-04-02, 00:22:00,VALID,920.01,VALID,0,VALID,97.2485,VALID,0,VALID,19.574,VALID,150,VALID,0.571915,
2002-04-02, 00:23:00,VALID,920.002,VALID,0,VALID,97.2002,VALID,0,VALID,19.574,VALID,152,VALID,0.42352,
2002-04-02, 00:24:00,VALID,919.995,VALID,0,VALID,97.1926,VALID,0,VALID,19.5742,VALID,156,VALID,0.717748,
2002-04-02, 00:25:00,VALID,919.988,VALID,0,VALID,97.1684,VALID,0,VALID,19.574,VALID,158,VALID,0.747327,
2002-04-02, 00:26:00,VALID,919.983,VALID,0,VALID,97.1404,VALID,-0.0169808,VALID,19.5708,VALID,153,VALID,0.566306,
2002-04-02, 00:27:00,VALID,919.972,VALID,0,VALID,97.1252,VALID,0,VALID,19.5675,VALID,155,VALID,0.642475,
2002-04-02, 00:28:00,VALID,919.97,VALID,0,VALID,97.0463,VALID,-0.0169808,VALID,19.5772,VALID,174,VALID,0.493032,
2002-04-02, 00:29:00,VALID,919.966,VALID,0,VALID,97.0336,VALID,0,VALID,19.5805,VALID,162,VALID,0.26912,
2002-04-02, 00:30:00,VALID,919.961,VALID,0,VALID,96.9573,VALID,0,VALID,19.5839,VALID,122,VALID,0.154848,
2002-04-02, 00:31:00,VALID,919.955,VALID,0,VALID,96.9103,VALID,0,VALID,19.5809,VALID,123,VALID,0.0544819,
2002-04-02, 00:32:00,VALID,919.94,VALID,0,VALID,96.9039,VALID,0,VALID,19.574,VALID,52,VALID,0.36879,
2002-04-02, 00:33:00,VALID,919.943,VALID,0,VALID,96.8085,VALID,0,VALID,19.5382,VALID,47,VALID,0.0129523,
2002-04-02, 00:34:00,VALID,919.934,VALID,0,VALID,96.7602,VALID,0,VALID,19.4999,VALID,47,VALID,0,
2002-04-02, 00:35:00,VALID,919.938,VALID,0,VALID,96.9268,VALID,0,VALID,19.4773,VALID,47,VALID,0.0152138,
2002-04-02, 00:36:00,VALID,919.921,VALID,0,VALID,97.0997,VALID,-0.0169808,VALID,19.4811,VALID,46,VALID,0.401242,
2002-04-02, 00:37:00,VALID,919.913,VALID,0,VALID,97.1531,VALID,-0.0169808,VALID,19.4647,VALID,46,VALID,0.28125,
2002-04-02, 00:38:00,VALID,919.893,VALID,0,VALID,97.115,VALID,0,VALID,19.4224,VALID,46,VALID,0.215946,
2002-04-02, 00:39:00,VALID,919.883,VALID,0,VALID,97.1112,VALID,0,VALID,19.3904,VALID,46,VALID,0.360197,
2002-04-02, 00:40:00,VALID,919.865,VALID,0,VALID,97.2561,VALID,0,VALID,19.3548,VALID,46,VALID,0.553886,
2002-04-02, 00:41:00,VALID,919.851,VALID,0,VALID,97.4532,VALID,-0.0509425,VALID,19.3484,VALID,46,VALID,0.372738,
2002-04-02, 00:42:00,VALID,919.832,VALID,0,VALID,97.5588,VALID,-0.101885,VALID,19.3749,VALID,53,VALID,0.389824,
2002-04-02, 00:43:00,VALID,919.8,VALID,0,VALID,97.6211,VALID,-0.0849042,VALID,19.3615,VALID,69,VALID,0.493421,
2002-04-02, 00:44:01,VALID,919.774,VALID,0,VALID,97.6732,VALID,-0.0679233,VALID,19.3685,VALID,72,VALID,0.570313,
2002-04-02, 00:45:00,VALID,919.773,VALID,0,VALID,97.7101,VALID,-0.0849042,VALID,19.3645,VALID,72,VALID,0.577303,
2002-04-02, 00:46:01,VALID,919.762,VALID,0,VALID,97.7266,VALID,-0.0849042,VALID,19.3777,VALID,72,VALID,0.626402,
2002-04-02, 00:47:00,VALID,919.766,VALID,0,VALID,97.6783,VALID,-0.0849042,VALID,19.3782,VALID,67,VALID,0.544613,
2002-04-02, 00:48:00,VALID,919.75,VALID,0,VALID,97.6084,VALID,-0.101885,VALID,19.362,VALID,66,VALID,0.502003,
2002-04-02, 00:49:00,VALID,919.739,VALID,0,VALID,97.616,VALID,-0.0849042,VALID,19.3419,VALID,66,VALID,0.520354,
2002-04-02, 00:50:01,VALID,919.716,VALID,0,VALID,97.6986,VALID,-0.0849042,VALID,19.3456,VALID,68,VALID,0.554087,
2002-04-02, 00:51:00,VALID,919.694,VALID,0,VALID,97.7355,VALID,-0.0509425,VALID,19.3486,VALID,68,VALID,0.567845,
2002-04-02, 00:52:00,VALID,919.673,VALID,0,VALID,97.7101,VALID,-0.0509425,VALID,19.329,VALID,76,VALID,0.595152,
2002-04-02, 00:53:00,VALID,919.678,VALID,0,VALID,97.7012,VALID,-0.0509425,VALID,19.3136,VALID,77,VALID,0.769737,
2002-04-02, 00:54:00,VALID,919.67,VALID,0,VALID,97.7826,VALID,-0.0679233,VALID,19.2905,VALID,84,VALID,0.843149,
2002-04-02, 00:55:00,VALID,919.667,VALID,0,VALID,97.8233,VALID,-0.0849042,VALID,19.2877,VALID,72,VALID,0.776933,
2002-04-02, 00:56:00,VALID,919.663,VALID,0,VALID,97.8729,VALID,-0.0169808,VALID,19.2738,VALID,74,VALID,0.796675,
2002-04-02, 00:57:00,VALID,919.651,VALID,0,VALID,97.9123,VALID,0.0169808,VALID,19.244,VALID,70,VALID,0.519942,
2002-04-02, 00:58:00,VALID,919.653,VALID,0,VALID,97.9784,VALID,0.0169808,VALID,19.2445,VALID,66,VALID,0.316106,
2002-04-02, 00:59:00,VALID,919.633,VALID,0,VALID,98.0661,VALID,0.0509425,VALID,19.2371,VALID,66,VALID,0.306949,
2002-04-02, 01:00:00,VALID,919.629,VALID,0,VALID,98.1475,VALID,0.0509425,VALID,19.2537,VALID,68,VALID,0.305088,
2002-04-02, 01:01:00,VALID,919.598,VALID,0,VALID,98.1793,VALID,0.0509425,VALID,19.254,VALID,68,VALID,0.0244655,
2002-04-02, 01:02:01,VALID,919.584,VALID,0,VALID,98.2022,VALID,0.0339617,VALID,19.2373,VALID,68,VALID,0,
2002-04-02, 01:03:00,VALID,919.577,VALID,0,VALID,98.2264,VALID,0,VALID,19.2577,VALID,68,VALID,0.00102796,
2002-04-02, 01:04:01,VALID,919.558,VALID,0,VALID,98.2454,VALID,0.0339617,VALID,19.2343,VALID,56,VALID,0.0550881,
2002-04-02, 01:05:00,VALID,919.544,VALID,0,VALID,98.3154,VALID,0.0339617,VALID,19.2473,VALID,21,VALID,0.214433,
2002-04-02, 01:06:01,VALID,919.537,VALID,0,VALID,98.3434,VALID,0.0509425,VALID,19.257,VALID,260,VALID,0.273037,
2002-04-02, 01:07:00,VALID,919.518,VALID,0,VALID,98.351,VALID,-0.0509425,VALID,19.2552,VALID,256,VALID,0.345189,
2002-04-02, 01:08:01,VALID,919.509,VALID,0,VALID,98.3612,VALID,-0.0679233,VALID,19.252,VALID,256,VALID,0.0120192,
2002-04-02, 01:09:00,VALID,919.479,VALID,0,VALID,98.3993,VALID,-0.0849042,VALID,19.2584,VALID,256,VALID,0,
2002-04-02, 01:10:01,VALID,919.462,VALID,0,VALID,98.398,VALID,-0.0509425,VALID,19.2383,VALID,234,VALID,0.0785256,
2002-04-02, 01:11:00,VALID,919.448,VALID,0,VALID,98.3853,VALID,-0.0169808,VALID,19.2254,VALID,188,VALID,0.35403,
2002-04-02, 01:12:00,VALID,919.449,VALID,0,VALID,98.3408,VALID,0.0339617,VALID,19.1988,VALID,187,VALID,0.330929,
2002-04-02, 01:13:00,VALID,919.424,VALID,0,VALID,98.3319,VALID,0.0169808,VALID,19.1765,VALID,186,VALID,0.426398,
2002-04-02, 01:14:01,VALID,919.419,VALID,0,VALID,98.3802,VALID,0.0339617,VALID,19.1603,VALID,194,VALID,0.199119,
2002-04-02, 01:15:00,VALID,919.413,VALID,0,VALID,98.4527,VALID,0,VALID,19.1469,VALID,184,VALID,0.344161,
2002-04-02, 01:16:01,VALID,919.392,VALID,0,VALID,98.5163,VALID,0.0339617,VALID,19.1601,VALID,162,VALID,0.14403,
2002-04-02, 01:17:00,VALID,919.381,VALID,0,VALID,98.5557,VALID,0.0169808,VALID,19.1732,VALID,162,VALID,0.0988898,
2002-04-02, 01:18:01,VALID,919.373,VALID,0,VALID,98.5697,VALID,0.0339617,VALID,19.1961,VALID,162,VALID,0,
2002-04-02, 01:19:00,VALID,919.356,VALID,0,VALID,98.4947,VALID,0,VALID,19.1536,VALID,156,VALID,0.068051,
2002-04-02, 01:20:01,VALID,919.335,VALID,0,VALID,98.4692,VALID,0,VALID,19.128,VALID,147,VALID,0.118189,
2002-04-02, 01:21:00,VALID,919.315,VALID,0,VALID,98.5163,VALID,0.0339617,VALID,19.1086,VALID,147,VALID,0.172081,
2002-04-02, 01:22:01,VALID,919.296,VALID,0,VALID,98.5455,VALID,0.0509425,VALID,19.0726,VALID,145,VALID,0.272837,
2002-04-02, 01:23:00,VALID,919.27,VALID,0,VALID,98.6282,VALID,0.0509425,VALID,19.0758,VALID,106,VALID,0.417146,
2002-04-02, 01:24:00,VALID,919.269,VALID,0,VALID,98.6435,VALID,0.0339617,VALID,19.0758,VALID,100,VALID,0.429487,
2002-04-02, 01:25:00,VALID,919.272,VALID,0,VALID,98.6015,VALID,0.0849042,VALID,19.0597,VALID,88,VALID,0.513775,
2002-04-02, 01:26:01,VALID,919.271,VALID,0,VALID,98.6638,VALID,0.0169808,VALID,19.0343,VALID,75,VALID,0.637019,
2002-04-02, 01:27:00,VALID,919.273,VALID,0,VALID,98.7045,VALID,0.0169808,VALID,19.0381,VALID,67,VALID,0.702097,
2002-04-02, 01:28:01,VALID,919.271,VALID,0,VALID,98.735,VALID,0,VALID,19.0512,VALID,66,VALID,0.586338,
2002-04-02, 01:29:00,VALID,919.264,VALID,0,VALID,98.749,VALID,0,VALID,19.048,VALID,66,VALID,0.478207,
2002-04-02, 01:30:01,VALID,919.24,VALID,0,VALID,98.8126,VALID,-0.0169808,VALID,19.0574,VALID,66,VALID,0.540865,
2002-04-02, 01:31:00,VALID,919.225,VALID,0,VALID,98.8049,VALID,-0.0169808,VALID,19.0637,VALID,66,VALID,0.390008,
2002-04-02, 01:32:01,VALID,919.211,VALID,0,VALID,98.8151,VALID,-0.0169808,VALID,19.0639,VALID,66,VALID,0.433694,
2002-04-02, 01:33:00,VALID,919.18,VALID,0,VALID,98.8164,VALID,0,VALID,19.0768,VALID,66,VALID,0.287623,
2002-04-02, 01:34:01,VALID,919.17,VALID,0,VALID,98.8723,VALID,0,VALID,19.0833,VALID,66,VALID,0.244792,
2002-04-02, 01:35:00,VALID,919.154,VALID,0,VALID,98.9156,VALID,-0.0169808,VALID,19.1158,VALID,66,VALID,0.131168,
2002-04-02, 01:36:00,VALID,919.133,VALID,0,VALID,98.9283,VALID,0,VALID,19.1285,VALID,66,VALID,0.00300481,
2002-04-02, 01:37:00,VALID,919.119,VALID,0,VALID,98.9359,VALID,0,VALID,19.161,VALID,66,VALID,0,
2002-04-02, 01:38:01,VALID,919.105,VALID,0,VALID,98.899,VALID,0.0169808,VALID,19.1707,VALID,66,VALID,0,
2002-04-02, 01:39:00,VALID,919.086,VALID,0,VALID,98.8151,VALID,-0.0169808,VALID,19.1091,VALID,66,VALID,0,
2002-04-02, 01:40:01,VALID,919.086,VALID,0,VALID,98.7172,VALID,0,VALID,19.0542,VALID,50,VALID,0.320913,
2002-04-02, 01:41:00,VALID,919.077,VALID,0,VALID,98.6218,VALID,-0.0169808,VALID,18.9797,VALID,46,VALID,0.339433,
2002-04-02, 01:42:01,VALID,919.073,VALID,0,VALID,98.6358,VALID,-0.0169808,VALID,18.9451,VALID,46,VALID,0.307492,
2002-04-02, 01:43:00,VALID,919.057,VALID,0,VALID,98.688,VALID,0,VALID,18.9253,VALID,46,VALID,0.366571,
2002-04-02, 01:44:01,VALID,919.057,VALID,0,VALID,98.7236,VALID,0,VALID,18.9054,VALID,47,VALID,0.614583,
2002-04-02, 01:45:00,VALID,919.043,VALID,0,VALID,98.7922,VALID,0,VALID,18.9218,VALID,48,VALID,0.706414,
2002-04-02, 01:46:01,VALID,919.028,VALID,0,VALID,98.824,VALID,-0.0169808,VALID,18.9312,VALID,48,VALID,0.654447,
2002-04-02, 01:47:00,VALID,919.019,VALID,0,VALID,98.824,VALID,-0.0849042,VALID,18.9446,VALID,51,VALID,0.640831,
2002-04-02, 01:48:00,VALID,919.032,VALID,0,VALID,98.8571,VALID,-0.0169808,VALID,18.9483,VALID,74,VALID,0.780649,
2002-04-02, 01:49:00,VALID,919.01,VALID,0,VALID,98.8978,VALID,0,VALID,18.9705,VALID,87,VALID,0.885485,
2002-04-02, 01:50:01,VALID,919.014,VALID,0,VALID,98.941,VALID,0,VALID,18.9894,VALID,91,VALID,0.973357,
2002-04-02, 01:51:00,VALID,919.005,VALID,0,VALID,98.9054,VALID,0,VALID,19.0055,VALID,92,VALID,0.945724,
2002-04-02, 01:52:01,VALID,919.008,VALID,0,VALID,98.8762,VALID,0,VALID,19.0032,VALID,95,VALID,0.905649,
2002-04-02, 01:53:00,VALID,919.004,VALID,0,VALID,98.8889,VALID,-0.0169808,VALID,19.0092,VALID,96,VALID,0.865954,
2002-04-02, 01:54:01,VALID,918.981,VALID,0,VALID,98.8762,VALID,-0.0169808,VALID,19.0062,VALID,95,VALID,0.99359,
2002-04-02, 01:55:00,VALID,918.973,VALID,0,VALID,98.8088,VALID,-0.0169808,VALID,18.9866,VALID,84,VALID,1.10177,
2002-04-02, 01:56:01,VALID,918.951,VALID,0,VALID,98.7795,VALID,0,VALID,18.958,VALID,88,VALID,1.17808,
2002-04-02, 01:57:00,VALID,918.939,VALID,0,VALID,98.7668,VALID,0,VALID,18.9352,VALID,84,VALID,1.04153,
2002-04-02, 01:58:01,VALID,918.93,VALID,0,VALID,98.8113,VALID,0,VALID,18.9126,VALID,87,VALID,1.27063,
2002-04-02, 01:59:00,VALID,918.92,VALID,0,VALID,98.8406,VALID,-0.0169808,VALID,18.8992,VALID,90,VALID,1.32792,
2002-04-02, 02:00:00,VALID,918.91,VALID,0,VALID,98.8571,VALID,-0.0339617,VALID,18.8798,VALID,85,VALID,1.33013,
2002-04-02, 02:01:00,VALID,918.9,VALID,0,VALID,98.8749,VALID,-0.0169808,VALID,18.877,VALID,75,VALID,1.13713,
2002-04-02, 02:02:01,VALID,918.869,VALID,0,VALID,98.9105,VALID,0,VALID,18.8674,VALID,89,VALID,1.53285,
2002-04-02, 02:03:00,VALID,918.848,VALID,0,VALID,98.9461,VALID,-0.0169808,VALID,18.8641,VALID,84,VALID,1.1322,
2002-04-02, 02:04:01,VALID,918.827,VALID,0,VALID,98.969,VALID,0,VALID,18.8507,VALID,92,VALID,0.927284,
2002-04-02, 02:05:00,VALID,918.83,VALID,0,VALID,99.0313,VALID,-0.0339617,VALID,18.8706,VALID,92,VALID,1.02118,
2002-04-02, 02:06:01,VALID,918.827,VALID,0,VALID,99.0618,VALID,0,VALID,18.8964,VALID,91,VALID,0.969752,
2002-04-02, 02:07:00,VALID,918.805,VALID,0,VALID,99.0847,VALID,-0.0169808,VALID,18.9093,VALID,94,VALID,1.04215,
2002-04-02, 02:08:01,VALID,918.788,VALID,0,VALID,99.1521,VALID,-0.0169808,VALID,18.9573,VALID,113,VALID,1.08494,
2002-04-02, 02:09:00,VALID,918.779,VALID,0,VALID,99.1661,VALID,-0.0169808,VALID,18.9767,VALID,108,VALID,1.13692,
2002-04-02, 02:10:01,VALID,918.759,VALID,0,VALID,99.1788,VALID,0,VALID,19.0129,VALID,96,VALID,1.28806,
2002-04-02, 02:11:00,VALID,918.749,VALID,0,VALID,99.1661,VALID,-0.0339617,VALID,19.0154,VALID,83,VALID,1.35012,
2002-04-02, 02:12:00,VALID,918.727,VALID,0,VALID,99.1406,VALID,0,VALID,18.9928,VALID,78,VALID,1.44351,
2002-04-02, 02:13:00,VALID,918.732,VALID,0,VALID,99.1356,VALID,-0.0169808,VALID,18.9737,VALID,87,VALID,1.40831,
2002-04-02, 02:14:01,VALID,918.718,VALID,0,VALID,99.1216,VALID,-0.0509425,VALID,18.9702,VALID,93,VALID,1.25581,
2002-04-02, 02:15:01,VALID,918.685,VALID,0,VALID,99.1394,VALID,-0.0169808,VALID,18.9638,VALID,94,VALID,1.22533,
2002-04-02, 02:16:01,VALID,918.67,VALID,0,VALID,99.1457,VALID,0,VALID,18.9839,VALID,100,VALID,1.16366,
2002-04-02, 02:17:01,VALID,918.66,VALID,0,VALID,99.1724,VALID,0,VALID,19.0028,VALID,91,VALID,0.736225,
2002-04-02, 02:18:01,VALID,918.645,VALID,0,VALID,99.1813,VALID,-0.0169808,VALID,19.0095,VALID,85,VALID,1.13982,
2002-04-02, 02:19:00,VALID,918.621,VALID,0,VALID,99.1674,VALID,0,VALID,18.9958,VALID,57,VALID,0.998355,
2002-04-02, 02:20:01,VALID,918.614,VALID,0,VALID,99.1521,VALID,-0.0169808,VALID,18.9571,VALID,69,VALID,1.05188,
2002-04-02, 02:21:00,VALID,918.597,VALID,0,VALID,99.1406,VALID,0.0339617,VALID,18.961,VALID,92,VALID,0.724095,
2002-04-02, 02:22:01,VALID,918.585,VALID,0,VALID,99.1267,VALID,0,VALID,18.9349,VALID,125,VALID,0.4998,
2002-04-02, 02:23:00,VALID,918.568,VALID,0,VALID,99.1559,VALID,0.0169808,VALID,18.9511,VALID,120,VALID,0.827714,
2002-04-02, 02:24:01,VALID,918.552,VALID,0,VALID,99.1585,VALID,0,VALID,18.9575,VALID,119,VALID,0.748598,
2002-04-02, 02:25:01,VALID,918.544,VALID,0,VALID,99.1597,VALID,0,VALID,18.9511,VALID,116,VALID,0.950247,
2002-04-02, 02:26:01,VALID,918.536,VALID,0,VALID,99.1635,VALID,0,VALID,18.961,VALID,127,VALID,1.06631,
2002-04-02, 02:27:00,VALID,918.518,VALID,0,VALID,99.1686,VALID,0,VALID,18.9578,VALID,125,VALID,0.861225,
2002-04-02, 02:28:01,VALID,918.514,VALID,0,VALID,99.1635,VALID,0,VALID,18.9744,VALID,121,VALID,0.935497,
2002-04-02, 02:29:00,VALID,918.513,VALID,0,VALID,99.1635,VALID,0,VALID,18.9608,VALID,111,VALID,0.358553,
2002-04-02, 02:30:01,VALID,918.505,VALID,0,VALID,99.147,VALID,-0.0169808,VALID,18.9613,VALID,91,VALID,0.84976,
2002-04-02, 02:31:01,VALID,918.494,VALID,0,VALID,99.1445,VALID,0,VALID,18.9548,VALID,94,VALID,1.04153,
2002-04-02, 02:32:01,VALID,918.477,VALID,0,VALID,99.1457,VALID,0,VALID,18.9483,VALID,100,VALID,1.12941,
2002-04-02, 02:33:01,VALID,918.452,VALID,0,VALID,99.1445,VALID,0,VALID,18.9419,VALID,100,VALID,1.2095,
2002-04-02, 02:34:01,VALID,918.433,VALID,0,VALID,99.1406,VALID,-0.0169808,VALID,18.9285,VALID,96,VALID,1.02484,
2002-04-02, 02:35:01,VALID,918.418,VALID,0,VALID,99.1305,VALID,0,VALID,18.9126,VALID,98,VALID,1.08224,
2002-04-02, 02:36:01,VALID,918.395,VALID,0,VALID,99.1496,VALID,-0.0169808,VALID,18.9188,VALID,96,VALID,1.07552,
2002-04-02, 02:37:01,VALID,918.369,VALID,0,VALID,99.1445,VALID,0,VALID,18.9257,VALID,103,VALID,1.01645,
2002-04-02, 02:38:01,VALID,918.359,VALID,0,VALID,99.1572,VALID,-0.0169808,VALID,18.9223,VALID,101,VALID,1.13802,
2002-04-02, 02:39:01,VALID,918.355,VALID,0,VALID,99.1457,VALID,0.0169808,VALID,18.9026,VALID,103,VALID,0.97574,
2002-04-02, 02:40:01,VALID,918.344,VALID,0,VALID,99.1585,VALID,0,VALID,18.89,VALID,91,VALID,0.917468,
2002-04-02, 02:41:01,VALID,918.331,VALID,0,VALID,99.1483,VALID,0,VALID,18.8768,VALID,88,VALID,0.944285,
2002-04-02, 02:42:01,VALID,918.317,VALID,0,VALID,99.1483,VALID,0,VALID,18.8671,VALID,108,VALID,1.378,
2002-04-02, 02:43:01,VALID,918.309,VALID,0,VALID,99.1356,VALID,0,VALID,18.8708,VALID,102,VALID,1.12726,
2002-04-02, 02:44:01,VALID,918.288,VALID,0,VALID,99.1432,VALID,0,VALID,18.8611,VALID,102,VALID,1.16146,
2002-04-02, 02:45:01,VALID,918.293,VALID,0,VALID,99.1318,VALID,0.0169808,VALID,18.8611,VALID,82,VALID,0.797286,
2002-04-02, 02:46:01,VALID,918.28,VALID,0,VALID,99.1228,VALID,0,VALID,18.8477,VALID,98,VALID,1.29547,
2002-04-02, 02:47:01,VALID,918.264,VALID,0,VALID,99.1114,VALID,0.0169808,VALID,18.8351,VALID,103,VALID,1.23849,
2002-04-02, 02:48:01,VALID,918.26,VALID,0,VALID,99.1,VALID,0,VALID,18.8346,VALID,98,VALID,1.12119,
2002-04-02, 02:49:01,VALID,918.25,VALID,0,VALID,99.0809,VALID,0,VALID,18.8447,VALID,97,VALID,1.04605,
2002-04-02, 02:50:01,VALID,918.258,VALID,0,VALID,99.0669,VALID,0,VALID,18.8581,VALID,92,VALID,1.09455,
2002-04-02, 02:51:01,VALID,918.253,VALID,0,VALID,99.044,VALID,0,VALID,18.8482,VALID,113,VALID,1.29955,
2002-04-02, 02:52:01,VALID,918.257,VALID,0,VALID,99.0046,VALID,-0.0339617,VALID,18.8383,VALID,111,VALID,0.871595,
2002-04-02, 02:53:00,VALID,918.243,VALID,0,VALID,98.9881,VALID,-0.0169808,VALID,18.8482,VALID,78,VALID,0.643298,
2002-04-02, 02:54:00,VALID,918.23,VALID,0,VALID,98.9525,VALID,-0.0169808,VALID,18.8519,VALID,92,VALID,0.517829,
2002-04-02, 02:55:00,VALID,918.227,VALID,0,VALID,98.9308,VALID,0,VALID,18.8286,VALID,95,VALID,0.610609,
2002-04-02, 02:56:00,VALID,918.207,VALID,0,VALID,98.9067,VALID,0,VALID,18.8355,VALID,109,VALID,0.483974,
2002-04-02, 02:57:00,VALID,918.176,VALID,0,VALID,98.8723,VALID,0,VALID,18.8256,VALID,99,VALID,0.645148,
2002-04-02, 02:58:00,VALID,918.166,VALID,0,VALID,98.8571,VALID,-0.0339617,VALID,18.8187,VALID,102,VALID,0.932292,
2002-04-02, 02:59:00,VALID,918.141,VALID,0,VALID,98.8202,VALID,0,VALID,18.8348,VALID,85,VALID,0.637541,
2002-04-02, 03:00:00,VALID,918.116,VALID,0,VALID,98.7452,VALID,0,VALID,18.8381,VALID,89,VALID,0.712139,
2002-04-02, 03:01:00,VALID,918.113,VALID,0,VALID,98.688,VALID,-0.0169808,VALID,18.8485,VALID,99,VALID,0.817023,
2002-04-02, 03:02:00,VALID,918.103,VALID,0,VALID,98.6613,VALID,-0.0339617,VALID,18.8452,VALID,98,VALID,1.10116,
2002-04-02, 03:03:00,VALID,918.087,VALID,0,VALID,98.5392,VALID,0,VALID,18.8519,VALID,107,VALID,0.844572,
2002-04-02, 03:04:00,VALID,918.076,VALID,0,VALID,98.4807,VALID,0,VALID,18.8482,VALID,103,VALID,0.908854,
2002-04-02, 03:05:00,VALID,918.059,VALID,0,VALID,98.4247,VALID,-0.0169808,VALID,18.8547,VALID,95,VALID,0.951891,
2002-04-02, 03:06:00,VALID,918.043,VALID,0,VALID,98.3891,VALID,-0.0339617,VALID,18.8646,VALID,105,VALID,1.15365,
2002-04-02, 03:07:00,VALID,918.026,VALID,0,VALID,98.365,VALID,-0.0339617,VALID,18.8748,VALID,107,VALID,1.11102,
2002-04-02, 03:08:00,VALID,918.023,VALID,0,VALID,98.3866,VALID,0,VALID,18.8837,VALID,111,VALID,1.12821,
2002-04-02, 03:09:00,VALID,918.018,VALID,0,VALID,98.3802,VALID,0,VALID,18.9031,VALID,105,VALID,1.05592,
2002-04-02, 03:10:00,VALID,918.02,VALID,0,VALID,98.3434,VALID,0,VALID,18.8964,VALID,97,VALID,1.29811,
2002-04-02, 03:11:00,VALID,918.02,VALID,0,VALID,98.365,VALID,0,VALID,18.8934,VALID,104,VALID,1.25637,
2002-04-02, 03:12:00,VALID,918.025,VALID,0,VALID,98.3777,VALID,-0.0339617,VALID,18.9133,VALID,114,VALID,1.17648,
2002-04-02, 03:13:00,VALID,918.027,VALID,0,VALID,98.4553,VALID,0,VALID,18.8967,VALID,136,VALID,0.69264,
2002-04-02, 03:14:00,VALID,918.042,VALID,0,VALID,98.4794,VALID,-0.0169808,VALID,18.9029,VALID,123,VALID,0.764022,
2002-04-02, 03:15:00,VALID,918.039,VALID,0,VALID,98.557,VALID,0.0169808,VALID,18.9193,VALID,127,VALID,0.982525,
2002-04-02, 03:16:00,VALID,918.039,VALID,0,VALID,98.571,VALID,-0.0169808,VALID,18.9225,VALID,114,VALID,0.878806,
2002-04-02, 03:17:00,VALID,918.021,VALID,0,VALID,98.5735,VALID,-0.0339617,VALID,18.913,VALID,117,VALID,0.940995,
2002-04-02, 03:18:00,VALID,918.004,VALID,0,VALID,98.5837,VALID,0,VALID,18.8969,VALID,105,VALID,0.893229,
2002-04-02, 03:19:00,VALID,917.992,VALID,0,VALID,98.5761,VALID,0,VALID,18.8743,VALID,108,VALID,1.01377,
2002-04-02, 03:20:00,VALID,917.98,VALID,0,VALID,98.557,VALID,0.0169808,VALID,18.8512,VALID,76,VALID,0.998397,
2002-04-02, 03:21:00,VALID,917.962,VALID,0.2,VALID,98.5862,VALID,0,VALID,18.8551,VALID,96,VALID,1.05921,
2002-04-02, 03:22:00,VALID,917.955,VALID,0,VALID,98.571,VALID,0.0169808,VALID,18.8353,VALID,114,VALID,1.15104,
2002-04-02, 03:23:00,VALID,917.953,VALID,0,VALID,98.5735,VALID,0,VALID,18.8358,VALID,123,VALID,1.044,
2002-04-02, 03:24:00,VALID,917.948,VALID,0,VALID,98.618,VALID,0,VALID,18.8452,VALID,148,VALID,0.796274,
2002-04-02, 03:25:00,VALID,917.93,VALID,0,VALID,98.6218,VALID,-0.0169808,VALID,18.8579,VALID,143,VALID,1.27097,
2002-04-02, 03:26:00,VALID,917.917,VALID,0,VALID,98.571,VALID,-0.0509425,VALID,18.8589,VALID,141,VALID,1.30749,
2002-04-02, 03:27:00,VALID,917.901,VALID,0,VALID,98.5201,VALID,-0.101885,VALID,18.8596,VALID,143,VALID,1.25226,
2002-04-02, 03:28:00,VALID,917.893,VALID,0,VALID,98.4336,VALID,-0.0849042,VALID,18.8455,VALID,126,VALID,0.920873,
2002-04-02, 03:29:00,VALID,917.887,VALID,0,VALID,98.365,VALID,-0.0679233,VALID,18.8656,VALID,130,VALID,0.83162,
2002-04-02, 03:30:00,VALID,917.882,VALID,0,VALID,98.3052,VALID,-0.0849042,VALID,18.869,VALID,126,VALID,1.07833,
2002-04-02, 03:31:00,VALID,917.859,VALID,0,VALID,98.2709,VALID,-0.101885,VALID,18.8688,VALID,149,VALID,1.55284,
2002-04-02, 03:32:00,VALID,917.854,VALID,0,VALID,98.2111,VALID,-0.101885,VALID,18.9016,VALID,141,VALID,1.39964,
2002-04-02, 03:33:00,VALID,917.85,VALID,0,VALID,98.0776,VALID,-0.0849042,VALID,18.9336,VALID,145,VALID,1.3234,
2002-04-02, 03:34:00,VALID,917.836,VALID,0,VALID,97.953,VALID,-0.101885,VALID,18.9528,VALID,129,VALID,1.25942,
2002-04-02, 03:35:00,VALID,917.826,VALID,0,VALID,97.8042,VALID,-0.101885,VALID,18.956,VALID,117,VALID,1.11842,
2002-04-02, 03:36:00,VALID,917.827,VALID,0,VALID,97.6821,VALID,-0.101885,VALID,18.9691,VALID,115,VALID,0.882212,